[[{"header":{"parameterUnit":"m.s-1","parameterCategory":1,"la1":30.2991,"la2":30.254,"lo1":-89.0895,"lo2":-89.0444,"dy":0.0017,"dx":0.0017,"nx":28,"ny":28,"refTime":"2024-08-17T03:00:00:Z","depth":0,"parameterNumber":2,"parameterNumberName":"U-component_of_WINDS"},"data":[0,0,0,0,0,0,0,0,0,0,0,0,0,0,0,0,0,0,0,0,0,0,0,0,0,0,0,0,0,0,0,0,0,0,0,0,0,0,0,0,0,0,0,0,0,0,0,0,0,0,0,0,0,0,0,0,0,0,3.3722,3.3724,0,3.3872,3.3874,3.3876,3.3871,3.3869,3.3867,3.3865,3.4026,3.4032,3.4038,0,0,0,0,0,0,0,0,0,0,0,0,0,3.3438,3.3443,3.3722,3.3724,3.3726,3.3872,3.3874,3.3876,3.3872,3.3869,3.3866,3.3864,3.4024,3.4031,3.4039,0,0,0,0,0,0,0,0,0,0,0,0,0,3.3572,3.3445,3.3721,3.3741,3.3744,3.3872,3.3874,3.3877,3.3872,3.3869,3.3866,3.3863,3.4021,3.403,3.404,3.416,0,0,3.4068,3.4072,0,0,0,0,0,0,0,0,3.3565,3.3583,3.3736,3.374,3.3743,3.385,3.3833,3.3972,3.3873,3.3824,3.3865,3.3861,3.397,3.3983,3.4019,3.4167,3.4174,3.4069,3.4075,3.4079,3.4081,0,0,0,0,0,0,0,3.3555,3.3576,3.3781,3.3738,3.3743,3.3744,3.376,3.3859,3.3913,3.3828,3.3828,3.3845,3.3972,3.401,3.4023,3.4177,3.4069,3.4077,3.4083,3.4086,3.4433,3.4436,0,0,0,0,0,0,3.3541,3.3568,3.3777,3.3786,3.3644,3.3752,3.3769,3.3819,3.3912,3.3923,3.3848,3.3844,3.3995,3.4012,3.4028,3.4175,3.4079,3.4087,3.4093,3.4429,3.4434,3.4438,0,0,0,0,0,0,3.3535,3.356,3.3771,3.3677,3.3704,3.376,3.3816,3.3823,3.3861,3.3927,3.3937,3.3876,3.3994,3.4015,3.4127,3.4181,3.4091,3.41,3.4425,3.4431,3.4436,3.4471,0,0,0,0,0,0,3.3527,3.3557,3.3602,3.3678,3.3709,3.3865,3.3819,3.3829,3.3877,3.3874,3.3956,3.3967,3.3993,3.4113,3.4136,3.4192,3.4107,3.4421,3.4428,3.4434,3.4465,3.4476,3.4486,0,0,0,0,0,3.3517,3.3607,3.3604,3.3629,3.3765,3.3868,3.3886,3.3911,3.3881,3.3927,3.397,3.3964,3.4171,3.4124,3.4151,3.421,3.4417,3.4426,3.4434,3.446,3.4474,3.4486,0,0,0,0,0,0,3.3537,3.3617,3.3615,3.3732,3.3793,3.3867,3.3926,3.3926,3.3998,3.3993,3.4024,3.4043,3.4155,3.4194,3.414,3.4332,3.4291,3.4305,3.4302,3.4316,3.4327,3.4315,3.4115,0,0,0,0,0,3.3555,3.3629,3.3696,3.3793,3.3823,3.3869,3.3915,3.393,3.3995,3.4021,3.4071,3.4137,3.4217,3.4269,3.4346,3.4471,3.4489,3.4525,3.4536,3.4544,3.4556,3.4626,3.4642,3.4464,3.4464,3.4464,0,0,3.3593,3.3646,3.3691,3.3799,3.3847,3.3926,3.3891,3.3975,3.4034,3.4035,3.4142,3.4182,3.4258,3.4377,3.4432,3.4413,3.4609,3.4555,3.4561,3.4568,3.4636,3.4653,3.4668,3.447,3.4469,3.4468,0,0,3.3702,3.3749,3.3835,3.3885,3.3959,3.3989,3.401,3.4084,3.411,3.4218,3.4221,3.4293,3.4429,3.4483,3.4528,3.4659,3.4658,3.4684,3.474,3.4808,3.4822,3.4835,3.4882,3.4898,3.4695,3.4695,3.4696,0,3.3741,3.3856,3.388,3.3965,3.4013,3.4015,3.4104,3.4152,3.4248,3.4282,3.4259,3.4431,3.4482,3.4614,3.4646,3.4682,3.4708,3.4674,3.4818,3.4831,3.4843,3.4888,3.4906,3.4698,3.4698,3.4698,3.4697,0,3.3901,3.3981,3.4042,3.4133,3.4188,3.4274,3.4314,3.4367,3.4377,3.4411,3.4523,3.4584,3.4673,3.4706,3.4718,3.4841,3.4827,3.4811,3.477,3.4862,3.4905,3.4923,3.4702,3.4701,3.47,3.47,0,0,3.4025,3.4129,3.4151,3.4192,3.4275,3.4339,3.4427,3.4512,3.4558,3.4625,3.47,3.4816,3.4802,3.4853,3.4871,3.4931,3.5032,3.4908,3.491,3.4929,3.5171,3.5182,3.5202,3.5031,3.5035,3.5037,3.5165,0,3.4143,3.4295,3.4321,3.4456,3.4531,3.4535,3.4612,3.4672,3.4706,3.4777,3.4816,3.4898,3.4873,3.4904,3.4963,3.5007,3.5081,3.4998,3.5103,3.5106,3.5083,3.5224,3.5236,3.5353,3.5182,3.5185,3.5187,0,3.43,3.4369,3.4511,3.4584,3.4617,3.4685,3.4766,3.4833,3.4903,3.4923,3.4981,3.4992,3.5086,3.5041,3.5171,3.5114,3.5159,3.5188,3.5193,3.5203,3.5151,3.5238,3.5391,3.5408,3.5214,3.5212,3.521,0,3.4377,3.4506,3.4607,3.4643,3.4731,3.4779,3.4818,3.4884,3.4934,3.5007,3.504,3.5123,3.5168,3.5233,3.5267,3.5232,3.5396,3.5353,3.5416,3.5416,3.545,3.5447,3.5612,3.548,3.548,3.5479,3.5479,0,3.4505,3.4592,3.4643,3.4705,3.4803,3.4833,3.493,3.4969,3.5028,3.5099,3.5109,3.5177,3.5218,3.5293,3.5321,3.5424,3.5445,3.5466,3.5472,3.5464,3.5462,3.5494,3.5486,3.5484,3.5483,3.5482,3.5481,0,3.4607,3.4644,3.4755,3.4829,3.485,3.4919,3.4983,3.5046,3.508,3.5171,3.5194,3.5248,3.5336,3.5377,3.5487,3.5506,3.5623,3.5625,3.5599,3.5601,3.5662,3.5655,3.5852,3.5879,3.573,3.5731,3.5733,0,3.4685,3.4752,3.4833,3.488,3.492,3.4998,3.5049,3.5082,3.5135,3.5219,3.5272,3.536,3.5431,3.5572,3.5623,3.5708,3.571,3.5774,3.5723,3.5714,3.5711,3.5706,3.5713,3.5782,3.5784,3.5785,3.5786,0,3.4821,3.4837,3.4909,3.4988,3.5049,3.5113,3.5177,3.5216,3.5259,3.5319,3.5408,3.5464,3.5575,3.5663,3.575,3.5793,3.5798,3.5802,3.5821,3.5813,3.5795,3.5805,3.5623,3.5797,3.5796,3.5795,3.5794,3.5794,3.4914,3.4973,3.5039,3.512,3.5171,3.523,3.5292,3.5334,3.5408,3.5499,3.5515,3.561,3.568,3.5798,3.5844,3.592,3.5906,3.5933,3.594,3.5946,3.5949,3.5784,3.5937,3.5937,3.5936,3.5936,3.5936,0,3.5049,3.5092,3.5166,3.5254,3.5318,3.5315,3.5386,3.544,3.5523,3.5586,3.5657,3.576,3.5845,3.5903,3.599,3.604,3.6044,3.6062,3.6058,3.6068,3.5958,3.5932,3.6057,3.6057,3.6057,3.6057,3.6057,3.6057,3.5127,3.5228,3.5252,3.5379,3.5422,3.5513,3.5554,3.5609,3.566,3.5774,3.5844,3.5881,3.5943,3.6035,3.6114,3.6129,3.616,3.6178,3.6193,3.6088,3.6076,3.6063,3.604,3.6185,3.6185,3.6296,3.6297,3.6298]},{"header":{"parameterUnit":"m.s-1","parameterCategory":1,"la1":30.2991,"la2":30.254,"lo1":-89.0895,"lo2":-89.0444,"dy":0.0017,"dx":0.0017,"nx":28,"ny":28,"refTime":"2024-08-17T03:00:00:Z","depth":0,"parameterNumber":3,"parameterNumberName":"V-component_of_WINDS"},"data":[0,0,0,0,0,0,0,0,0,0,0,0,0,0,0,0,0,0,0,0,0,0,0,0,0,0,0,0,0,0,0,0,0,0,0,0,0,0,0,0,0,0,0,0,0,0,0,0,0,0,0,0,0,0,0,0,0,0,3.9014,3.9015,0,3.9169,3.9171,3.9172,3.9182,3.918,3.9178,3.9177,3.9328,3.9334,3.9339,0,0,0,0,0,0,0,0,0,0,0,0,0,3.8715,3.8721,3.9013,3.9015,3.9017,3.9169,3.9171,3.9173,3.9182,3.918,3.9178,3.9176,3.9326,3.9333,3.934,0,0,0,0,0,0,0,0,0,0,0,0,0,3.8855,3.8722,3.9013,3.904,3.9044,3.9168,3.9171,3.9173,3.9183,3.918,3.9177,3.9175,3.9324,3.9332,3.9341,3.9446,0,0,3.9367,3.937,0,0,0,0,0,0,0,0,3.8847,3.8866,3.9034,3.9039,3.9043,3.9153,3.9121,3.9264,3.9183,3.913,3.9177,3.9174,3.9272,3.9284,3.9319,3.9453,3.9459,3.9367,3.9373,3.9376,3.9379,0,0,0,0,0,0,0,3.8837,3.8859,3.9075,3.9037,3.9042,3.9042,3.9059,3.9148,3.9213,3.9134,3.9135,3.9154,3.9273,3.9311,3.9323,3.9462,3.9367,3.9375,3.938,3.9383,3.9684,3.9687,0,0,0,0,0,0,3.8823,3.8851,3.907,3.9079,3.8937,3.9049,3.9068,3.9121,3.9212,3.9224,3.9156,3.9154,3.9298,3.9313,3.9328,3.9454,3.9376,3.9384,3.9389,3.9682,3.9685,3.9688,0,0,0,0,0,0,3.8817,3.8843,3.9064,3.8966,3.8994,3.9057,3.9116,3.9125,3.9162,3.9229,3.924,3.9183,3.9296,3.9316,3.9416,3.9459,3.9388,3.9396,3.9678,3.9683,3.9687,3.9709,0,0,0,0,0,0,3.8808,3.8841,3.8884,3.8967,3.8999,3.9152,3.9119,3.913,3.9178,3.9177,3.9257,3.9268,3.9296,3.9403,3.9424,3.947,3.9402,3.9674,3.968,3.9685,3.9704,3.9713,3.9721,0,0,0,0,0,3.8798,3.8883,3.8886,3.8912,3.9054,3.9155,3.9173,3.9205,3.9182,3.9223,3.9265,3.9265,3.9452,3.9413,3.9437,3.9486,3.9672,3.9678,3.9685,3.9701,3.9712,3.9721,0,0,0,0,0,0,3.8802,3.8894,3.8899,3.9014,3.9076,3.9156,3.921,3.9216,3.9285,3.9281,3.9316,3.9333,3.9432,3.9469,3.9425,3.959,3.9559,3.957,3.9562,3.9573,3.9581,3.9569,3.9409,0,0,0,0,0,3.8816,3.8893,3.8968,3.9062,3.9094,3.9146,3.9191,3.9211,3.9276,3.9302,3.9352,3.9412,3.9484,3.9531,3.9601,3.971,3.9725,3.9755,3.9763,3.977,3.9779,3.9835,3.9848,3.971,3.971,3.9709,0,0,3.8846,3.8906,3.8952,3.9065,3.9115,3.919,3.9169,3.925,3.9304,3.9313,3.9411,3.9449,3.9519,3.9623,3.9671,3.9657,3.982,3.9778,3.9783,3.9788,3.9843,3.9856,3.9867,3.9714,3.9713,3.9712,0,0,3.8939,3.8994,3.9077,3.9128,3.9206,3.924,3.926,3.9338,3.9364,3.9463,3.9471,3.9534,3.9659,3.9707,3.9748,3.9856,3.9857,3.9878,3.9921,3.9975,3.9986,3.9996,4.0031,4.0044,3.9887,3.9887,3.9887,0,3.8966,3.9083,3.9118,3.9199,3.9246,3.9259,3.9341,3.9388,3.9484,3.9515,3.9498,3.9652,3.9701,3.9814,3.984,3.9874,3.9894,3.9869,3.9982,3.9992,4.0002,4.0036,4.005,3.9889,3.9889,3.9889,3.9889,0,3.911,3.919,3.9247,3.9341,3.9395,3.9475,3.952,3.9569,3.9583,3.9618,3.9715,3.9774,3.9854,3.9883,3.9897,3.9997,3.9986,3.9976,3.9944,4.0016,4.0049,4.0063,3.9892,3.9891,3.9891,3.989,0,0,3.921,3.9322,3.9342,3.9383,3.9468,3.9529,3.9608,3.9689,3.973,3.9794,3.9859,3.9963,3.9953,3.9999,4.0018,4.0067,4.0144,4.005,4.0052,4.0063,4.0254,4.026,4.0275,4.0146,4.0148,4.0151,4.0247,0,3.9311,3.9456,3.9489,3.9611,3.9683,3.9696,3.9764,3.9822,3.9855,3.9919,3.9955,4.0027,4.001,4.0037,4.0086,4.0125,4.0183,4.0118,4.0203,4.0205,4.0183,4.0293,4.03,4.0389,4.0261,4.0263,4.0264,0,3.9448,3.9517,3.9648,3.9721,3.9752,3.9814,3.9888,3.995,4.0014,4.0035,4.0086,4.0099,4.0178,4.0144,4.0251,4.0206,4.0242,4.0266,4.027,4.0278,4.0238,4.0301,4.0418,4.043,4.0285,4.0284,4.0282,0,3.9504,3.963,3.9724,3.9759,3.9847,3.9889,3.9928,3.999,4.0035,4.0099,4.0128,4.02,4.0239,4.0292,4.0324,4.0296,4.0427,4.0396,4.0443,4.0442,4.0469,4.0467,4.0591,4.0496,4.0495,4.0495,4.0495,0,3.9612,3.9691,3.975,3.9807,3.9894,3.9929,4.0013,4.0051,4.0105,4.0167,4.0182,4.0239,4.0278,4.0339,4.0364,4.0446,4.0464,4.048,4.0485,4.0478,4.0476,4.0501,4.0495,4.0499,4.0498,4.0497,4.0497,0,3.969,3.9733,3.9835,3.9911,3.9931,3.9992,4.0054,4.0108,4.0142,4.022,4.024,4.0291,4.0364,4.0401,4.0491,4.0507,4.06,4.0602,4.0579,4.058,4.0625,4.0619,4.0769,4.0789,4.0681,4.0682,4.0683,0,3.9755,3.9816,3.9897,3.9941,3.9981,4.0051,4.0097,4.0133,4.018,4.0256,4.03,4.0374,4.0435,4.055,4.0593,4.0661,4.0664,4.0712,4.0674,4.0664,4.0661,4.0657,4.0661,4.0718,4.0719,4.0719,4.072,0,3.9864,3.9882,3.995,4.0025,4.0081,4.0141,4.0199,4.0233,4.0278,4.0329,4.0405,4.0453,4.0545,4.0616,4.0687,4.0723,4.0727,4.0732,4.0746,4.0738,4.0721,4.0728,4.0595,4.0728,4.0727,4.0727,4.0726,4.0726,3.9936,3.999,4.0055,4.0129,4.0177,4.0232,4.0285,4.0326,4.039,4.047,4.0486,4.0565,4.0623,4.0719,4.0757,4.0817,4.0806,4.0827,4.0832,4.0836,4.0837,4.0713,4.083,4.083,4.083,4.0829,4.0829,0,4.0044,4.0087,4.0155,4.0237,4.0294,4.0297,4.0361,4.0408,4.0478,4.0534,4.0594,4.0678,4.0747,4.0796,4.0865,4.0903,4.0907,4.092,4.0916,4.0923,4.0844,4.0824,4.0915,4.0915,4.0915,4.0915,4.0915,4.0915,4.0107,4.0197,4.0222,4.0334,4.0375,4.0455,4.0491,4.0539,4.0584,4.0679,4.0737,4.0769,4.082,4.0893,4.0955,4.0967,4.099,4.1003,4.1014,4.0939,4.093,4.0921,4.0902,4.1008,4.1008,4.1089,4.1089,4.109]}]]